QPF
0.00 0.00 0.00 0.00 0.00 0.01 0.01 0.00 0.00 0.00 0.00 0.00 0.00 0.00 0.00 0.00 0.01 0.02 0.00 0.00 0.00 0.00 0.00 0.00 0.00 0.00 0.00 0.00 0.00 0.00 0.00 0.00 0.00 0.00 0.00 0.00 0.00 0.00 0.00 0.00 0.00 0.00 0.00 0.00 0.00 0.00 0.00 0.00 0.00
0.00 0.00 0.00 0.00 0.00 0.02 0.01 0.00 0.00 0.00 0.00 0.00 0.00 0.00 0.00 0.00 0.00 0.00 0.00 0.00 0.00 0.00 0.00 0.00 0.00 0.00 0.00 0.00 0.00 0.00 0.00 0.00 0.00 0.00 0.00 0.00 0.00 0.00 0.00 0.00 0.00 0.00 0.00 0.00 0.00 0.00 0.00 0.00 0.00
0.00 0.00 0.00 0.00 0.00 0.01 0.01 0.00 0.00 0.00 0.00 0.00 0.00 0.00 0.00 0.00 0.00 0.00 0.00 0.00 0.00 0.00 0.00 0.00 0.00 0.00 0.00 0.00 0.00 0.00 0.00 0.00 0.00 0.00 0.00 0.00 0.00 0.00 0.00 0.00 0.00 0.00 0.00 0.00 0.00 0.00 0.00 0.00 0.00
0.00 0.00 0.00 0.00 0.00 0.00 0.00 0.00 0.00 0.00 0.00 0.00 0.00 0.00 0.00 0.00 0.00 0.00 0.00 0.00 0.00 0.00 0.00 0.00 0.00 0.00 0.00 0.00 0.00 0.00 0.00 0.00 0.00 0.00 0.00 0.00 0.00 0.00 0.00 0.00 0.00 0.00 0.00 0.00 0.00 0.00 0.00 0.00 0.00
0.00 0.00 0.00 0.00 0.00 0.00 0.00 0.00 0.00 0.00 0.00 0.00 0.00 0.00 0.00 0.00 0.00 0.00 0.00 0.00 0.00 0.00 0.00 0.00 0.00 0.00 0.00 0.00 0.00 0.00 0.00 0.00 0.00 0.00 0.00 0.00 0.00 0.00 0.00 0.00 0.00 0.00 0.00 0.00 0.00 0.00 0.00 0.00 0.00
0.00 0.00 0.00 0.00 0.00 0.00 0.00 0.00 0.00 0.00 0.00 0.00 0.00 0.00 0.00 0.00 0.00 0.00 0.00 0.00 0.00 0.00 0.00 0.00 0.00 0.00 0.00 0.00 0.00 0.00 0.00 0.00 0.00 0.00 0.00 0.00 0.00 0.00 0.00 0.00 0.00 0.00 0.00 0.00 0.00 0.00 0.00 0.00 0.00
0.00 0.00 0.00 0.00 0.00 0.00 0.00 0.00 0.00 0.00 0.00 0.00 0.00 0.00 0.00 0.00 0.00 0.00 0.00 0.00 0.00 0.00 0.00 0.00 0.00 0.00 0.00 0.00 0.00 0.00 0.00 0.00 0.00 0.00 0.00 0.00 0.00 0.00 0.00 0.00 0.00 0.00 0.00 0.00 0.00 0.00 0.00 0.00 0.00
0.00 0.00 0.00 0.00 0.00 0.00 0.00 0.00 0.00 0.00 0.00 0.00 0.00 0.00 0.00 0.00 0.00 0.00 0.00 0.00 0.00 0.00 0.00 0.00 0.00 0.00 0.00 0.00 0.00 0.00 0.00 0.00 0.00 0.00 0.00 0.00 0.00 0.00 0.00 0.00 0.00 0.00 0.00 0.01 0.01 0.01 0.01 0.00 0.00
0.00 0.00 0.00 0.00 0.00 0.00 0.00 0.00 0.00 0.00 0.00 0.00 0.00 0.00 0.00 0.00 0.00 0.00 0.00 0.00 0.00 0.00 0.00 0.00 0.00 0.00 0.00 0.00 0.00 0.00 0.00 0.00 0.00 0.00 0.00 0.00 0.00 0.01 0.02 0.01 0.01 0.01 0.00 0.00 0.01 0.01 0.01 0.01 0.00
0.00 0.00 0.00 0.00 0.00 0.00 0.00 0.00 0.00 0.00 0.00 0.00 0.00 0.00 0.00 0.00 0.00 0.00 0.00 0.00 0.00 0.00 0.00 0.00 0.00 0.00 0.00 0.00 0.00 0.00 0.00 0.00 0.00 0.00 0.01 0.01 0.03 0.04 0.02 0.02 0.03 0.02 0.01 0.00 0.00 0.01 0.01 0.01 0.01
0.00 0.00 0.00 0.00 0.00 0.00 0.00 0.00 0.00 0.00 0.00 0.00 0.00 0.00 0.00 0.00 0.00 0.00 0.00 0.00 0.00 0.00 0.00 0.00 0.00 0.00 0.00 0.00 0.00 0.00 0.00 0.01 0.01 0.01 0.02 0.06 0.07 0.03 0.00 0.00 0.00 0.00 0.00 0.01 0.03 0.05 0.01 0.01 0.04
0.00 0.00 0.00 0.00 0.00 0.00 0.00 0.00 0.00 0.00 0.00 0.00 0.00 0.01 0.02 0.01 0.00 0.00 0.00 0.00 0.00 0.00 0.00 0.00 0.00 0.00 0.00 0.00 0.00 0.00 0.00 0.01 0.01 0.03 0.02 0.02 0.03 0.01 0.00 0.00 0.00 0.01 0.01 0.03 0.06 0.07 0.03 0.02 0.01
0.00 0.00 0.00 0.00 0.00 0.00 0.00 0.00 0.00 0.00 0.00 0.00 0.00 0.00 0.00 0.00 0.00 0.00 0.00 0.00 0.00 0.00 0.00 0.00 0.00 0.00 0.01 0.02 0.02 0.00 0.00 0.00 0.00 0.01 0.01 0.01 0.02 0.01 0.00 0.00 0.00 0.00 0.00 0.03 0.05 0.02 0.03 0.03 0.01
0.00 0.00 0.00 0.00 0.00 0.00 0.00 0.00 0.00 0.00 0.00 0.00 0.00 0.00 0.00 0.00 0.00 0.00 0.00 0.00 0.00 0.00 0.00 0.00 0.00 0.00 0.01 0.01 0.01 0.01 0.00 0.00 0.00 0.00 0.00 0.00 0.00 0.00 0.00 0.00 0.01 0.00 0.00 0.00 0.03 0.03 0.05 0.04 0.02
0.00 0.00 0.00 0.00 0.00 0.00 0.00 0.00 0.00 0.00 0.00 0.00 0.00 0.00 0.00 0.00 0.00 0.00 0.00 0.00 0.00 0.00 0.00 0.00 0.00 0.00 0.00 0.00 0.00 0.00 0.00 0.00 0.00 0.00 0.00 0.00 0.00 0.00 0.00 0.00 0.01 0.02 0.02 0.03 0.03 0.04 0.04 0.04 0.04
0.00 0.00 0.00 0.00 0.00 0.00 0.00 0.00 0.00 0.00 0.00 0.00 0.00 0.00 0.00 0.00 0.00 0.00 0.00 0.00 0.00 0.00 0.00 0.00 0.00 0.00 0.01 0.01 0.01 0.00 0.00 0.00 0.00 0.00 0.00 0.00 0.00 0.00 0.02 0.02 0.02 0.05 0.07 0.08 0.11 0.09 0.09 0.11 0.11
0.00 0.00 0.00 0.00 0.00 0.00 0.00 0.00 0.00 0.00 0.00 0.00 0.00 0.00 0.00 0.00 0.00 0.00 0.00 0.00 0.00 0.00 0.00 0.01 0.02 0.03 0.04 0.06 0.04 0.01 0.01 0.00 0.00 0.00 0.00 0.00 0.00 0.02 0.05 0.05 0.10 0.13 0.15 0.16 0.12 0.17 0.21 0.22 0.21
0.00 0.00 0.00 0.00 0.00 0.00 0.00 0.00 0.00 0.00 0.00 0.00 0.00 0.00 0.00 0.00 0.00 0.00 0.00 0.00 0.00 0.00 0.01 0.03 0.08 0.12 0.15 0.17 0.14 0.10 0.06 0.03 0.01 0.00 0.00 0.01 0.03 0.06 0.10 0.10 0.15 0.17 0.18 0.17 0.19 0.23 0.24 0.23 0.24
0.00 0.00 0.00 0.00 0.00 0.00 0.00 0.00 0.00 0.00 0.00 0.00 0.00 0.00 0.00 0.00 0.00 0.00 0.00 0.00 0.00 0.00 0.02 0.07 0.15 0.21 0.23 0.24 0.22 0.21 0.18 0.15 0.11 0.05 0.04 0.05 0.07 0.11 0.17 0.15 0.21 0.19 0.18 0.18 0.20 0.22 0.22 0.23 0.28
0.00 0.00 0.00 0.00 0.00 0.00 0.00 0.00 0.00 0.00 0.00 0.00 0.00 0.00 0.00 0.00 0.00 0.00 0.00 0.00 0.00 0.01 0.01 0.05 0.13 0.20 0.22 0.26 0.26 0.27 0.30 0.24 0.18 0.15 0.15 0.13 0.13 0.16 0.18 0.20 0.23 0.25 0.25 0.24 0.26 0.28 0.26 0.25 0.27
0.00 0.00 0.00 0.00 0.00 0.00 0.00 0.00 0.00 0.00 0.00 0.00 0.00 0.00 0.00 0.00 0.00 0.00 0.00 0.00 0.00 0.00 0.01 0.02 0.06 0.10 0.14 0.18 0.20 0.20 0.24 0.17 0.17 0.22 0.25 0.18 0.20 0.22 0.26 0.25 0.28 0.32 0.35 0.34 0.33 0.32 0.33 0.31 0.29
0.00 0.00 0.00 0.00 0.00 0.00 0.00 0.00 0.00 0.00 0.00 0.00 0.00 0.01 0.01 0.00 0.00 0.00 0.00 0.00 0.00 0.00 0.00 0.01 0.03 0.04 0.07 0.10 0.13 0.16 0.18 0.17 0.19 0.27 0.24 0.18 0.14 0.13 0.18 0.22 0.26 0.32 0.38 0.39 0.38 0.38 0.38 0.37 0.33
0.00 0.00 0.00 0.00 0.00 0.00 0.00 0.00 0.00 0.00 0.00 0.01 0.02 0.03 0.02 0.00 0.00 0.00 0.00 0.00 0.00 0.00 0.00 0.00 0.01 0.02 0.03 0.04 0.07 0.09 0.11 0.14 0.16 0.18 0.16 0.11 0.07 0.06 0.10 0.20 0.30 0.39 0.44 0.45 0.43 0.42 0.41 0.40 0.37
0.00 0.00 0.00 0.00 0.00 0.00 0.00 0.00 0.00 0.00 0.00 0.01 0.02 0.02 0.00 0.00 0.00 0.00 0.00 0.00 0.00 0.00 0.00 0.00 0.00 0.01 0.01 0.02 0.03 0.05 0.07 0.09 0.09 0.09 0.09 0.07 0.06 0.06 0.09 0.17 0.25 0.32 0.39 0.43 0.44 0.42 0.41 0.40 0.36
0.00 0.00 0.00 0.00 0.00 0.01 0.01 0.01 0.00 0.00 0.00 0.00 0.00 0.00 0.00 0.00 0.00 0.00 0.00 0.00 0.00 0.00 0.00 0.00 0.00 0.00 0.00 0.01 0.02 0.04 0.07 0.09 0.10 0.11 0.11 0.10 0.09 0.07 0.06 0.08 0.12 0.16 0.21 0.26 0.30 0.31 0.32 0.33 0.32
0.00 0.00 0.00 0.00 0.00 0.00 0.00 0.00 0.00 0.00 0.00 0.00 0.00 0.00 0.00 0.00 0.00 0.00 0.00 0.00 0.00 0.00 0.00 0.00 0.00 0.00 0.00 0.01 0.02 0.04 0.06 0.10 0.12 0.14 0.15 0.15 0.16 0.14 0.11 0.08 0.09 0.12 0.17 0.20 0.23 0.24 0.24 0.24 0.24
0.00 0.00 0.00 0.00 0.00 0.00 0.00 0.00 0.00 0.00 0.00 0.00 0.00 0.00 0.00 0.00 0.00 0.00 0.00 0.00 0.00 0.00 0.00 0.00 0.00 0.00 0.00 0.01 0.03 0.05 0.08 0.11 0.13 0.15 0.18 0.20 0.21 0.18 0.16 0.14 0.14 0.17 0.21 0.23 0.23 0.23 0.22 0.23 0.24
0.00 0.00 0.00 0.00 0.00 0.00 0.00 0.00 0.00 0.00 0.00 0.00 0.00 0.00 0.00 0.00 0.00 0.00 0.00 0.00 0.00 0.00 0.00 0.00 0.00 0.00 0.01 0.01 0.03 0.05 0.08 0.10 0.13 0.17 0.21 0.22 0.22 0.22 0.23 0.20 0.19 0.20 0.20 0.19 0.18 0.20 0.19 0.20 0.21
0.00 0.00 0.00 0.00 0.00 0.00 0.01 0.00 0.00 0.00 0.00 0.00 0.00 0.00 0.00 0.00 0.00 0.00 0.00 0.00 0.00 0.00 0.00 0.00 0.00 0.01 0.01 0.02 0.03 0.05 0.08 0.10 0.13 0.17 0.21 0.23 0.23 0.22 0.24 0.24 0.22 0.19 0.16 0.13 0.12 0.13 0.14 0.16 0.17
0.00 0.00 0.00 0.00 0.00 0.00 0.01 0.00 0.00 0.00 0.00 0.00 0.00 0.00 0.00 0.00 0.00 0.00 0.00 0.00 0.00 0.00 0.00 0.00 0.00 0.01 0.01 0.02 0.03 0.06 0.10 0.16 0.20 0.20 0.23 0.27 0.30 0.28 0.26 0.25 0.22 0.18 0.15 0.12 0.11 0.12 0.15 0.16 0.15
MSLP
1008.30 1008.90 1009.54 1010.07 1010.34 1010.28 1009.88 1009.22 1008.43 1007.66 1007.06 1006.73 1006.69 1006.88 1007.23 1007.61 1007.93 1008.14 1008.24 1008.29 1008.39 1008.61 1009.03 1009.63 1010.39 1011.20 1011.96 1012.58 1013.02 1013.28 1013.41 1013.48 1013.58 1013.76 1014.06 1014.44 1014.87 1015.27 1015.58 1015.77 1015.84 1015.81 1015.74 1015.68 1015.68 1015.73 1015.85 1016.00 1016.14
1008.42 1009.05 1009.65 1010.09 1010.25 1010.07 1009.58 1008.86 1008.04 1007.29 1006.72 1006.42 1006.39 1006.58 1006.89 1007.23 1007.50 1007.68 1007.80 1007.91 1008.10 1008.46 1009.01 1009.75 1010.61 1011.48 1012.26 1012.88 1013.28 1013.49 1013.58 1013.61 1013.69 1013.87 1014.17 1014.55 1014.97 1015.36 1015.66 1015.83 1015.88 1015.85 1015.80 1015.77 1015.79 1015.89 1016.03 1016.19 1016.33
1008.58 1009.18 1009.71 1010.03 1010.05 1009.75 1009.17 1008.40 1007.59 1006.87 1006.37 1006.12 1006.13 1006.33 1006.62 1006.92 1007.15 1007.31 1007.43 1007.59 1007.86 1008.32 1008.98 1009.81 1010.75 1011.66 1012.46 1013.07 1013.45 1013.65 1013.71 1013.74 1013.81 1013.99 1014.28 1014.65 1015.04 1015.39 1015.66 1015.80 1015.84 1015.81 1015.78 1015.79 1015.87 1016.02 1016.20 1016.39 1016.52
1008.74 1009.28 1009.70 1009.88 1009.76 1009.34 1008.68 1007.89 1007.10 1006.45 1006.03 1005.87 1005.93 1006.15 1006.44 1006.70 1006.91 1007.04 1007.16 1007.34 1007.67 1008.19 1008.92 1009.81 1010.79 1011.73 1012.54 1013.14 1013.53 1013.72 1013.80 1013.84 1013.93 1014.11 1014.39 1014.74 1015.09 1015.39 1015.60 1015.71 1015.73 1015.72 1015.72 1015.78 1015.91 1016.12 1016.35 1016.56 1016.69
1008.90 1009.35 1009.63 1009.66 1009.40 1008.87 1008.15 1007.36 1006.63 1006.07 1005.75 1005.68 1005.81 1006.06 1006.35 1006.60 1006.77 1006.88 1006.99 1007.19 1007.53 1008.08 1008.84 1009.75 1010.74 1011.68 1012.49 1013.10 1013.49 1013.72 1013.83 1013.91 1014.03 1014.23 1014.50 1014.81 1015.12 1015.36 1015.52 1015.58 1015.59 1015.58 1015.61 1015.71 1015.90 1016.15 1016.42 1016.65 1016.78
1009.04 1009.37 1009.51 1009.39 1009.00 1008.39 1007.64 1006.88 1006.22 1005.76 1005.55 1005.56 1005.76 1006.05 1006.35 1006.58 1006.73 1006.83 1006.93 1007.12 1007.46 1008.01 1008.76 1009.66 1010.62 1011.54 1012.33 1012.94 1013.35 1013.61 1013.77 1013.91 1014.07 1014.29 1014.56 1014.85 1015.11 1015.30 1015.40 1015.42 1015.40 1015.39 1015.44 1015.57 1015.80 1016.08 1016.37 1016.61 1016.74
1009.14 1009.35 1009.34 1009.09 1008.60 1007.94 1007.19 1006.48 1005.90 1005.54 1005.42 1005.52 1005.77 1006.09 1006.39 1006.62 1006.77 1006.85 1006.95 1007.13 1007.47 1007.99 1008.71 1009.56 1010.46 1011.33 1012.08 1012.68 1013.11 1013.40 1013.61 1013.80 1014.01 1014.25 1014.53 1014.79 1015.01 1015.15 1015.21 1015.19 1015.14 1015.13 1015.18 1015.33 1015.57 1015.86 1016.16 1016.39 1016.51
1009.20 1009.28 1009.15 1008.79 1008.24 1007.56 1006.84 1006.18 1005.69 1005.41 1005.37 1005.52 1005.80 1006.13 1006.44 1006.67 1006.82 1006.91 1007.01 1007.19 1007.52 1008.02 1008.68 1009.46 1010.29 1011.08 1011.78 1012.34 1012.76 1013.07 1013.32 1013.55 1013.79 1014.06 1014.34 1014.59 1014.78 1014.89 1014.91 1014.86 1014.80 1014.77 1014.82 1014.96 1015.20 1015.48 1015.76 1015.98 1016.08
1009.19 1009.16 1008.93 1008.51 1007.93 1007.25 1006.58 1005.99 1005.56 1005.35 1005.34 1005.52 1005.81 1006.13 1006.43 1006.67 1006.83 1006.94 1007.07 1007.26 1007.58 1008.05 1008.65 1009.35 1010.09 1010.80 1011.41 1011.92 1012.32 1012.62 1012.89 1013.14 1013.40 1013.68 1013.96 1014.20 1014.37 1014.46 1014.47 1014.42 1014.35 1014.32 1014.36 1014.48 1014.69 1014.95 1015.20 1015.39 1015.48
1009.13 1009.01 1008.72 1008.26 1007.68 1007.04 1006.41 1005.88 1005.50 1005.32 1005.32 1005.49 1005.75 1006.05 1006.33 1006.57 1006.75 1006.90 1007.06 1007.28 1007.61 1008.05 1008.60 1009.22 1009.86 1010.47 1011.00 1011.44 1011.78 1012.07 1012.31 1012.56 1012.83 1013.10 1013.37 1013.61 1013.78 1013.88 1013.89 1013.85 1013.79 1013.76 1013.80 1013.91 1014.09 1014.31 1014.53 1014.69 1014.76
1009.02 1008.84 1008.51 1008.04 1007.49 1006.90 1006.33 1005.84 1005.50 1005.31 1005.29 1005.40 1005.61 1005.87 1006.12 1006.36 1006.56 1006.75 1006.96 1007.22 1007.55 1007.98 1008.48 1009.03 1009.58 1010.09 1010.54 1010.90 1011.19 1011.43 1011.64 1011.86 1012.10 1012.36 1012.62 1012.85 1013.03 1013.14 1013.19 1013.18 1013.15 1013.15 1013.19 1013.29 1013.44 1013.63 1013.81 1013.94 1014.00
1008.90 1008.68 1008.33 1007.88 1007.36 1006.83 1006.31 1005.86 1005.52 1005.31 1005.23 1005.27 1005.41 1005.60 1005.83 1006.05 1006.28 1006.51 1006.76 1007.05 1007.40 1007.81 1008.27 1008.76 1009.23 1009.67 1010.04 1010.34 1010.57 1010.76 1010.93 1011.11 1011.31 1011.53 1011.77 1011.99 1012.18 1012.32 1012.41 1012.45 1012.48 1012.51 1012.57 1012.67 1012.80 1012.96 1013.11 1013.22 1013.27
1008.80 1008.54 1008.19 1007.77 1007.31 1006.82 1006.35 1005.92 1005.57 1005.31 1005.17 1005.13 1005.18 1005.32 1005.50 1005.72 1005.95 1006.21 1006.49 1006.80 1007.16 1007.55 1007.98 1008.42 1008.84 1009.23 1009.55 1009.81 1010.00 1010.14 1010.27 1010.39 1010.54 1010.71 1010.91 1011.11 1011.31 1011.48 1011.62 1011.73 1011.82 1011.90 1011.98 1012.09 1012.22 1012.35 1012.48 1012.58 1012.63
1008.74 1008.46 1008.13 1007.74 1007.32 1006.89 1006.45 1006.03 1005.66 1005.36 1005.14 1005.03 1005.01 1005.09 1005.24 1005.44 1005.69 1005.95 1006.24 1006.56 1006.89 1007.26 1007.65 1008.05 1008.44 1008.80 1009.11 1009.35 1009.52 1009.64 1009.73 1009.80 1009.88 1009.99 1010.14 1010.31 1010.51 1010.70 1010.89 1011.06 1011.21 1011.34 1011.47 1011.59 1011.71 1011.84 1011.95 1012.04 1012.09
1008.75 1008.47 1008.15 1007.80 1007.43 1007.03 1006.62 1006.21 1005.82 1005.47 1005.20 1005.03 1004.97 1005.01 1005.14 1005.34 1005.58 1005.84 1006.12 1006.40 1006.70 1007.02 1007.36 1007.73 1008.10 1008.45 1008.76 1009.01 1009.20 1009.31 1009.37 1009.39 1009.41 1009.45 1009.53 1009.66 1009.83 1010.04 1010.26 1010.48 1010.68 1010.87 1011.02 1011.17 1011.29 1011.40 1011.51 1011.59 1011.64
1008.86 1008.58 1008.28 1007.97 1007.63 1007.27 1006.88 1006.47 1006.06 1005.69 1005.39 1005.19 1005.11 1005.14 1005.28 1005.48 1005.72 1005.96 1006.20 1006.43 1006.66 1006.91 1007.19 1007.51 1007.86 1008.21 1008.55 1008.83 1009.04 1009.17 1009.21 1009.19 1009.14 1009.10 1009.11 1009.17 1009.31 1009.50 1009.74 1010.00 1010.24 1010.46 1010.65 1010.81 1010.93 1011.04 1011.13 1011.21 1011.26
1009.07 1008.80 1008.53 1008.25 1007.95 1007.62 1007.24 1006.82 1006.40 1006.02 1005.71 1005.51 1005.45 1005.51 1005.67 1005.89 1006.13 1006.35 1006.54 1006.70 1006.84 1006.99 1007.19 1007.45 1007.76 1008.12 1008.48 1008.80 1009.04 1009.18 1009.21 1009.15 1009.04 1008.92 1008.84 1008.83 1008.91 1009.08 1009.32 1009.60 1009.87 1010.12 1010.33 1010.49 1010.62 1010.72 1010.80 1010.87 1010.93
1009.36 1009.13 1008.90 1008.66 1008.40 1008.08 1007.70 1007.28 1006.85 1006.45 1006.15 1005.97 1005.95 1006.06 1006.27 1006.53 1006.79 1007.00 1007.13 1007.20 1007.24 1007.28 1007.38 1007.55 1007.82 1008.16 1008.53 1008.88 1009.14 1009.29 1009.31 1009.21 1009.03 1008.83 1008.67 1008.58 1008.61 1008.74 1008.97 1009.25 1009.55 1009.82 1010.04 1010.21 1010.33 1010.42 1010.49 1010.56 1010.63
1009.71 1009.54 1009.37 1009.19 1008.96 1008.65 1008.27 1007.83 1007.37 1006.96 1006.66 1006.51 1006.53 1006.71 1006.99 1007.30 1007.59 1007.79 1007.89 1007.88 1007.81 1007.74 1007.72 1007.80 1008.00 1008.30 1008.65 1009.00 1009.27 1009.42 1009.42 1009.28 1009.04 1008.77 1008.52 1008.36 1008.33 1008.43 1008.65 1008.94 1009.25 1009.54 1009.77 1009.95 1010.07 1010.15 1010.22 1010.28 1010.35
1010.10 1010.01 1009.93 1009.81 1009.62 1009.32 1008.92 1008.44 1007.94 1007.50 1007.18 1007.05 1007.11 1007.34 1007.68 1008.06 1008.39 1008.61 1008.68 1008.61 1008.45 1008.27 1008.13 1008.11 1008.23 1008.46 1008.78 1009.10 1009.36 1009.49 1009.46 1009.28 1008.98 1008.64 1008.33 1008.12 1008.04 1008.12 1008.33 1008.62 1008.95 1009.26 1009.52 1009.71 1009.83 1009.91 1009.97 1010.04 1010.12
1010.48 1010.51 1010.53 1010.50 1010.35 1010.06 1009.63 1009.10 1008.53 1008.02 1007.66 1007.50 1007.57 1007.83 1008.22 1008.66 1009.04 1009.28 1009.34 1009.24 1009.02 1008.76 1008.53 1008.41 1008.43 1008.60 1008.85 1009.13 1009.35 1009.44 1009.38 1009.16 1008.82 1008.43 1008.07 1007.82 1007.72 1007.78 1007.99 1008.30 1008.66 1008.99 1009.27 1009.48 1009.61 1009.70 1009.76 1009.83 1009.92
1010.82 1011.00 1011.15 1011.21 1011.12 1010.84 1010.37 1009.76 1009.10 1008.49 1008.04 1007.81 1007.84 1008.09 1008.51 1008.97 1009.39 1009.67 1009.76 1009.66 1009.41 1009.10 1008.81 1008.61 1008.56 1008.64 1008.83 1009.04 1009.21 1009.27 1009.17 1008.92 1008.55 1008.13 1007.75 1007.48 1007.37 1007.43 1007.65 1007.98 1008.36 1008.72 1009.03 1009.26 1009.41 1009.50 1009.57 1009.65 1009.76
1011.13 1011.45 1011.74 1011.91 1011.88 1011.61 1011.10 1010.41 1009.64 1008.90 1008.33 1007.99 1007.92 1008.12 1008.50 1008.97 1009.41 1009.72 1009.85 1009.78 1009.56 1009.24 1008.93 1008.69 1008.57 1008.60 1008.71 1008.87 1008.99 1009.00 1008.88 1008.60 1008.22 1007.80 1007.42 1007.15 1007.03 1007.10 1007.33 1007.67 1008.07 1008.46 1008.78 1009.03 1009.20 1009.30 1009.39 1009.48 1009.59
1011.38 1011.86 1012.28 1012.55 1012.59 1012.33 1011.79 1011.03 1010.14 1009.27 1008.54 1008.05 1007.86 1007.94 1008.26 1008.69 1009.13 1009.46 1009.64 1009.62 1009.44 1009.17 1008.87 1008.63 1008.49 1008.47 1008.54 1008.65 1008.72 1008.71 1008.57 1008.29 1007.91 1007.50 1007.13 1006.87 1006.76 1006.83 1007.06 1007.40 1007.80 1008.19 1008.52 1008.78 1008.96 1009.08 1009.17 1009.27 1009.39
1011.60 1012.19 1012.73 1013.10 1013.19 1012.96 1012.41 1011.58 1010.60 1009.59 1008.71 1008.06 1007.71 1007.66 1007.86 1008.22 1008.62 1008.97 1009.19 1009.24 1009.14 1008.93 1008.69 1008.48 1008.35 1008.32 1008.36 1008.44 1008.49 1008.46 1008.31 1008.05 1007.69 1007.30 1006.95 1006.70 1006.60 1006.65 1006.86 1007.18 1007.55 1007.92 1008.25 1008.50 1008.68 1008.80 1008.90 1009.01 1009.14
1011.77 1012.45 1013.06 1013.49 1013.64 1013.44 1012.89 1012.04 1010.99 1009.88 1008.87 1008.07 1007.56 1007.35 1007.42 1007.68 1008.04 1008.38 1008.63 1008.74 1008.72 1008.61 1008.44 1008.29 1008.20 1008.18 1008.22 1008.29 1008.33 1008.30 1008.17 1007.93 1007.60 1007.25 1006.92 1006.68 1006.57 1006.60 1006.76 1007.03 1007.35 1007.68 1007.97 1008.20 1008.36 1008.48 1008.58 1008.69 1008.83
1011.91 1012.60 1013.24 1013.70 1013.87 1013.70 1013.17 1012.33 1011.26 1010.11 1009.02 1008.11 1007.46 1007.11 1007.05 1007.20 1007.49 1007.80 1008.06 1008.24 1008.30 1008.28 1008.21 1008.13 1008.09 1008.11 1008.16 1008.23 1008.28 1008.26 1008.15 1007.94 1007.66 1007.35 1007.05 1006.82 1006.69 1006.67 1006.78 1006.97 1007.22 1007.47 1007.70 1007.89 1008.04 1008.15 1008.25 1008.36 1008.50
1012.00 1012.63 1013.22 1013.66 1013.84 1013.69 1013.20 1012.40 1011.38 1010.24 1009.13 1008.16 1007.43 1006.97 1006.80 1006.84 1007.05 1007.32 1007.59 1007.81 1007.94 1008.01 1008.02 1008.03 1008.05 1008.10 1008.18 1008.26 1008.32 1008.32 1008.24 1008.08 1007.84 1007.57 1007.31 1007.08 1006.93 1006.87 1006.90 1007.01 1007.17 1007.34 1007.50 1007.64 1007.76 1007.86 1007.96 1008.07 1008.22
1012.02 1012.52 1012.99 1013.34 1013.49 1013.35 1012.92 1012.20 1011.26 1010.20 1009.14 1008.19 1007.43 1006.92 1006.66 1006.62 1006.76 1006.99 1007.25 1007.49 1007.67 1007.81 1007.90 1007.97 1008.05 1008.14 1008.24 1008.33 1008.41 1008.43 1008.39 1008.27 1008.09 1007.87 1007.64 1007.43 1007.27 1007.17 1007.13 1007.16 1007.22 1007.31 1007.40 1007.49 1007.58 1007.67 1007.78 1007.90 1008.05
1011.93 1012.24 1012.54 1012.77 1012.84 1012.70 1012.32 1011.71 1010.90 1009.97 1009.02 1008.14 1007.42 1006.90 1006.60 1006.50 1006.57 1006.76 1007.00 1007.24 1007.46 1007.65 1007.80 1007.93 1008.04 1008.16 1008.28 1008.39 1008.48 1008.53 1008.52 1008.46 1008.33 1008.17 1007.99 1007.81 1007.65 1007.52 1007.44 1007.40 1007.39 1007.41 1007.44 1007.49 1007.56 1007.64 1007.76 1007.90 1008.07
Thickness
5853 5855 5858 5854 5837 5824 5827 5858 5869 5867 5869 5878 5879 5874 5866 5855 5839 5828 5864 5875 5866 5854 5844 5837 5833 5829 5825 5821 5817 5813 5810 5807 5803 5799 5795 5792 5788 5786 5783 5781 5779 5777 5775 5772 5770 5769 5767 5766 5765
5857 5863 5860 5848 5828 5803 5828 5864 5862 5865 5875 5884 5881 5878 5872 5861 5866 5864 5870 5871 5864 5853 5844 5838 5832 5828 5824 5820 5816 5812 5809 5806 5803 5799 5795 5791 5788 5785 5783 5781 5779 5777 5774 5771 5769 5767 5765 5764 5763
5859 5865 5852 5847 5836 5819 5837 5865 5869 5878 5886 5884 5877 5879 5870 5860 5867 5870 5873 5873 5863 5851 5844 5836 5830 5826 5822 5818 5815 5811 5807 5804 5801 5798 5794 5791 5788 5785 5783 5781 5778 5776 5774 5771 5768 5766 5764 5763 5761
5862 5864 5856 5847 5844 5860 5870 5873 5881 5880 5882 5885 5882 5872 5870 5872 5876 5879 5879 5874 5862 5851 5843 5834 5829 5825 5821 5817 5813 5810 5806 5803 5800 5797 5794 5791 5788 5786 5783 5780 5778 5776 5773 5771 5769 5766 5764 5763 5761
5865 5853 5846 5846 5854 5876 5887 5889 5888 5876 5874 5879 5880 5865 5857 5873 5884 5883 5878 5873 5861 5853 5844 5834 5829 5824 5820 5816 5812 5809 5805 5802 5799 5796 5794 5791 5789 5787 5784 5781 5778 5776 5773 5771 5769 5767 5765 5764 5762
5851 5853 5837 5837 5851 5877 5887 5891 5888 5878 5876 5880 5879 5867 5856 5874 5877 5876 5876 5871 5865 5857 5845 5834 5828 5823 5819 5814 5810 5807 5804 5801 5798 5796 5793 5791 5789 5786 5784 5782 5779 5776 5774 5772 5770 5768 5767 5765 5764
5843 5840 5835 5848 5854 5869 5879 5893 5883 5875 5871 5878 5882 5866 5859 5870 5876 5877 5874 5871 5867 5860 5846 5834 5827 5822 5817 5813 5809 5806 5803 5800 5797 5795 5793 5791 5789 5786 5784 5782 5779 5777 5775 5773 5771 5769 5768 5766 5765
5856 5842 5838 5855 5862 5867 5883 5891 5893 5883 5873 5889 5888 5865 5855 5868 5877 5876 5871 5868 5865 5860 5848 5837 5831 5824 5818 5813 5809 5806 5803 5799 5796 5794 5792 5790 5788 5786 5784 5782 5780 5778 5776 5774 5773 5771 5769 5768 5767
5858 5831 5830 5853 5860 5867 5880 5880 5890 5897 5887 5884 5888 5881 5878 5878 5877 5869 5862 5860 5859 5856 5850 5842 5836 5828 5821 5816 5812 5806 5802 5799 5796 5794 5792 5790 5789 5788 5786 5784 5782 5779 5778 5776 5775 5773 5772 5770 5769
5848 5827 5842 5869 5872 5872 5875 5874 5881 5883 5878 5873 5880 5881 5883 5875 5869 5861 5855 5852 5850 5850 5849 5846 5841 5832 5826 5822 5816 5809 5805 5802 5798 5797 5794 5791 5791 5792 5792 5789 5785 5782 5780 5778 5776 5775 5774 5772 5772
5847 5837 5852 5867 5876 5875 5870 5874 5885 5876 5869 5870 5867 5867 5873 5868 5863 5859 5856 5854 5851 5850 5849 5848 5843 5835 5828 5825 5821 5814 5810 5808 5802 5800 5799 5796 5795 5794 5794 5793 5788 5784 5781 5779 5779 5776 5775 5776 5777
5844 5848 5857 5862 5869 5867 5866 5870 5872 5874 5876 5884 5880 5872 5863 5860 5860 5857 5855 5854 5852 5848 5846 5847 5843 5835 5830 5827 5825 5820 5816 5814 5810 5805 5802 5800 5796 5796 5796 5795 5792 5788 5785 5784 5783 5782 5780 5780 5781
5838 5842 5853 5862 5865 5865 5864 5863 5866 5872 5887 5888 5880 5874 5868 5866 5864 5861 5859 5855 5852 5845 5843 5843 5841 5834 5828 5824 5822 5821 5818 5817 5813 5811 5805 5801 5799 5795 5796 5795 5793 5790 5789 5788 5785 5785 5784 5782 5782
5836 5842 5848 5855 5858 5861 5855 5859 5862 5870 5885 5879 5871 5868 5869 5867 5865 5859 5855 5850 5847 5842 5839 5839 5836 5831 5825 5820 5815 5815 5816 5815 5813 5811 5808 5803 5800 5797 5795 5793 5791 5789 5787 5787 5786 5785 5783 5781 5781
5835 5826 5833 5847 5854 5856 5851 5840 5854 5873 5879 5866 5862 5863 5863 5863 5862 5855 5851 5846 5844 5840 5837 5834 5831 5826 5820 5815 5811 5809 5810 5811 5811 5809 5806 5803 5800 5796 5793 5790 5789 5788 5787 5786 5784 5781 5780 5778 5778
5826 5817 5814 5844 5857 5853 5833 5816 5852 5873 5867 5854 5852 5854 5852 5850 5852 5851 5848 5843 5841 5837 5832 5829 5827 5821 5815 5809 5806 5806 5806 5806 5807 5806 5804 5801 5798 5795 5791 5788 5786 5786 5785 5783 5779 5776 5773 5772 5772
5811 5805 5816 5841 5855 5844 5829 5818 5846 5860 5853 5842 5841 5842 5840 5835 5836 5839 5838 5835 5832 5829 5825 5822 5819 5814 5810 5805 5801 5799 5800 5800 5801 5801 5800 5798 5796 5793 5788 5784 5783 5782 5780 5777 5774 5771 5767 5765 5764
5801 5815 5826 5834 5848 5832 5813 5814 5836 5851 5842 5832 5830 5827 5825 5821 5820 5823 5823 5821 5819 5817 5815 5813 5809 5804 5801 5798 5794 5791 5791 5793 5794 5793 5793 5792 5790 5788 5785 5781 5778 5776 5772 5770 5767 5763 5761 5758 5756
5800 5801 5803 5819 5837 5818 5803 5803 5820 5837 5833 5824 5817 5811 5808 5805 5807 5807 5806 5805 5804 5803 5802 5800 5795 5791 5787 5784 5781 5779 5779 5781 5783 5786 5787 5785 5784 5780 5777 5775 5773 5769 5765 5763 5761 5758 5754 5750 5748
5793 5791 5796 5812 5824 5810 5798 5799 5814 5825 5825 5819 5810 5803 5797 5794 5792 5791 5790 5790 5788 5787 5787 5787 5784 5780 5778 5776 5774 5772 5772 5772 5774 5777 5778 5778 5776 5774 5770 5767 5764 5761 5757 5756 5755 5751 5745 5743 5740
5788 5787 5788 5787 5794 5797 5788 5786 5804 5821 5824 5813 5805 5797 5791 5785 5779 5778 5777 5776 5776 5774 5774 5774 5772 5771 5769 5768 5766 5765 5764 5764 5765 5766 5766 5768 5767 5765 5761 5760 5758 5755 5751 5749 5748 5744 5738 5732 5731
5772 5788 5782 5776 5768 5767 5777 5762 5793 5812 5806 5796 5787 5781 5776 5776 5774 5770 5767 5765 5765 5765 5767 5766 5764 5762 5760 5758 5755 5752 5750 5750 5755 5756 5757 5759 5759 5757 5754 5752 5750 5747 5745 5742 5741 5738 5733 5726 5721
5773 5782 5776 5771 5765 5761 5771 5764 5784 5800 5781 5772 5767 5765 5766 5769 5767 5763 5761 5758 5758 5758 5757 5757 5756 5753 5751 5749 5746 5743 5742 5743 5746 5747 5747 5748 5749 5749 5746 5743 5741 5739 5737 5734 5732 5730 5725 5719 5713
5779 5772 5772 5775 5769 5748 5759 5750 5761 5775 5771 5765 5764 5763 5763 5764 5763 5760 5758 5755 5752 5751 5749 5749 5746 5744 5743 5740 5738 5736 5734 5733 5734 5735 5735 5737 5738 5738 5737 5734 5731 5729 5727 5724 5722 5719 5715 5710 5706
5768 5750 5738 5742 5746 5740 5751 5749 5759 5776 5784 5776 5768 5764 5763 5762 5759 5754 5751 5748 5745 5744 5743 5741 5738 5736 5735 5733 5731 5730 5728 5727 5726 5726 5726 5726 5726 5726 5726 5724 5721 5719 5716 5713 5711 5708 5704 5702 5698
5759 5751 5728 5715 5723 5742 5761 5760 5775 5787 5785 5781 5774 5768 5764 5759 5756 5751 5748 5744 5741 5739 5736 5733 5730 5727 5725 5723 5722 5722 5721 5720 5720 5719 5718 5717 5716 5716 5715 5713 5711 5709 5706 5703 5700 5697 5695 5694 5692
5753 5754 5761 5741 5735 5733 5752 5769 5775 5772 5768 5766 5764 5762 5758 5755 5751 5747 5744 5740 5735 5731 5727 5724 5721 5718 5716 5714 5712 5712 5711 5710 5709 5708 5707 5707 5706 5705 5704 5701 5700 5698 5696 5693 5690 5688 5687 5688 5686
5767 5759 5747 5729 5711 5709 5729 5744 5748 5749 5751 5755 5755 5753 5753 5751 5746 5742 5736 5731 5726 5723 5719 5717 5714 5710 5707 5705 5702 5702 5699 5698 5697 5695 5692 5691 5691 5691 5690 5689 5688 5686 5685 5683 5682 5681 5681 5680 5679
5759 5750 5744 5737 5729 5705 5698 5722 5763 5755 5755 5752 5751 5751 5748 5745 5741 5736 5729 5724 5718 5714 5710 5707 5704 5701 5698 5695 5692 5689 5687 5684 5682 5679 5676 5674 5673 5674 5674 5675 5676 5676 5675 5675 5675 5675 5675 5674 5673
5769 5758 5747 5722 5717 5720 5709 5722 5766 5758 5756 5752 5747 5745 5742 5738 5735 5730 5724 5717 5709 5704 5700 5696 5694 5692 5689 5685 5681 5677 5674 5670 5667 5663 5659 5656 5655 5655 5657 5660 5662 5664 5666 5667 5668 5668 5669 5667 5666